When you browse on this site, cookies collect data to enhance your experience and personalize the content and advertising you see.
Visit our Privacy Policy to learn more. By continuing to use the site, you agree to this use of cookies and data.
  • In Romania
  • List of Countries
  • For 7 days
  • Water Temperature
  • Satellite Maps
  • Weather Map
  • Weather Widgets
  • user-avatar
    Login

    Hourly Weather Ekatino

    Today, 16 January, Wednesday

    Time Temperature Precipitation Wind Pressure Humidity
    00:00 -9°C° 0 mm 4 mps 726 mmHg 90%
    01:00 -9°C° 0 mm 3 mps 726 mmHg 91%
    02:00 -9°C° 0 mm 3 mps 727 mmHg 91%
    03:00 -9°C° 0 mm 3 mps 727 mmHg 91%
    04:00 -9°C° 0 mm 3 mps 727 mmHg 92%
    05:00 -9°C° 0 mm 3 mps 727 mmHg 92%
    06:00 -10°C° 0 mm 3 mps 727 mmHg 92%
    07:00 -12°C° 0 mm 3 mps 728 mmHg 93%
    08:00 -12°C° 0 mm 3 mps 728 mmHg 94%
    09:00 -10°C° 0 mm 3 mps 728 mmHg 93%
    10:00 -10°C° 0 mm 3 mps 728 mmHg 93%
    11:00 -9°C° 0 mm 3 mps 729 mmHg 92%
    12:00 -9°C° 0 mm 3 mps 729 mmHg 91%
    13:00 -9°C° 0 mm 3 mps 729 mmHg 91%
    14:00 -8°C° 0 mm 3 mps 729 mmHg 90%
    15:00 -8°C° 0 mm 3 mps 730 mmHg 91%
    16:00 -9°C° 0 mm 3 mps 730 mmHg 92%
    17:00 -8°C° 0 mm 2 mps 730 mmHg 93%
    18:00 -9°C° 0 mm 3 mps 731 mmHg 93%
    19:00 -8°C° 0 mm 3 mps 731 mmHg 93%
    20:00 -8°C° 0 mm 3 mps 731 mmHg 93%
    21:00 -8°C° 0 mm 3 mps 731 mmHg 92%
    22:00 -8°C° 0 mm 3 mps 732 mmHg 91%
    23:00 -8°C° 0 mm 3 mps 732 mmHg 90%

    Tomorrow, 17 January, Thursday

    Time Temperature Precipitation Wind Pressure Humidity
    00:00 -9°C° 0 mm 3 mps 732 mmHg 89%
    01:00 -9°C° 0 mm 3 mps 733 mmHg 88%
    02:00 -9°C° 0 mm 3 mps 733 mmHg 87%
    03:00 -10°C° 0 mm 3 mps 733 mmHg 89%
    04:00 -10°C° 0 mm 3 mps 733 mmHg 91%
    05:00 -12°C° 0 mm 3 mps 732 mmHg 93%
    06:00 -12°C° 0.1 mm 3 mps 732 mmHg 92%
    07:00 -11°C° 0.1 mm 4 mps 731 mmHg 91%
    08:00 -11°C° 0.1 mm 5 mps 731 mmHg 90%
    09:00 -10°C° 0.4 mm 5 mps 730 mmHg 90%
    10:00 -8°C° 0.4 mm 5 mps 729 mmHg 89%
    11:00 -8°C° 0.4 mm 6 mps 729 mmHg 89%
    12:00 -6°C° 0.4 mm 6 mps 728 mmHg 89%
    13:00 -5°C° 0.4 mm 6 mps 728 mmHg 89%
    14:00 -4°C° 0.4 mm 6 mps 727 mmHg 88%
    15:00 -3°C° 0.2 mm 6 mps 727 mmHg 88%
    16:00 -3°C° 0.2 mm 6 mps 726 mmHg 87%
    17:00 -2°C° 0.2 mm 6 mps 726 mmHg 86%
    18:00 -2°C° 0.3 mm 6 mps 725 mmHg 86%
    19:00 -2°C° 0.3 mm 7 mps 724 mmHg 85%
    20:00 -2°C° 0.3 mm 7 mps 724 mmHg 84%
    21:00 -2°C° 0.1 mm 7 mps 724 mmHg 83%
    22:00 -2°C° 0.1 mm 7 mps 723 mmHg 82%
    23:00 -2°C° 0.1 mm 7 mps 723 mmHg 81%

    Day after tomorrow, 18 January, Friday

    Time Temperature Precipitation Wind Pressure Humidity
    00:00 -2°C° 0 mm 7 mps 723 mmHg 80%
    01:00 -1°C° 0 mm 8 mps 723 mmHg 79%
    02:00 -1°C° 0 mm 8 mps 724 mmHg 78%
    03:00 -2°C° 0.1 mm 7 mps 724 mmHg 79%
    04:00 -2°C° 0.1 mm 7 mps 725 mmHg 79%
    05:00 -2°C° 0.1 mm 7 mps 726 mmHg 80%
    06:00 -3°C° 0 mm 6 mps 727 mmHg 81%
    07:00 -2°C° 0 mm 5 mps 728 mmHg 83%
    08:00 -4°C° 0 mm 5 mps 728 mmHg 84%
    09:00 -3°C° 0 mm 4 mps 728 mmHg 87%
    10:00 -2°C° 0 mm 3 mps 728 mmHg 89%
    11:00 -2°C° 0 mm 2 mps 728 mmHg 92%
    12:00 -1°C° 0.4 mm 2 mps 728 mmHg 92%
    13:00 -1°C° 0.4 mm 3 mps 727 mmHg 92%
    14:00 -1°C° 0.4 mm 3 mps 727 mmHg 92%
    15:00 -2°C° 0.6 mm 4 mps 727 mmHg 90%
    16:00 -2°C° 0.6 mm 5 mps 727 mmHg 87%
    17:00 -3°C° 0.6 mm 7 mps 727 mmHg 85%
    18:00 -6°C° 0.6 mm 6 mps 727 mmHg 86%
    19:00 -9°C° 0.6 mm 6 mps 728 mmHg 88%
    20:00 -12°C° 0.6 mm 6 mps 729 mmHg 89%
    21:00 -12°C° 0.2 mm 5 mps 730 mmHg 88%
    22:00 -12°C° 0.2 mm 5 mps 731 mmHg 87%
    23:00 -12°C° 0.2 mm 4 mps 732 mmHg 86%

    19 January, Saturday

    Time Temperature Precipitation Wind Pressure Humidity
    00:00 -12°C° 0 mm 4 mps 733 mmHg 87%
    01:00 -12°C° 0 mm 4 mps 733 mmHg 88%
    02:00 -14°C° 0 mm 4 mps 734 mmHg 89%
    03:00 -11°C° 0.1 mm 4 mps 734 mmHg 88%
    04:00 -10°C° 0.1 mm 4 mps 734 mmHg 87%
    05:00 -8°C° 0.1 mm 5 mps 734 mmHg 86%
    06:00 -9°C° 0.1 mm 4 mps 734 mmHg 87%
    07:00 -9°C° 0.1 mm 4 mps 735 mmHg 89%
    08:00 -8°C° 0.1 mm 3 mps 735 mmHg 90%
    09:00 -9°C° 0.1 mm 4 mps 736 mmHg 88%
    10:00 -9°C° 0.1 mm 4 mps 736 mmHg 85%
    11:00 -8°C° 0.1 mm 5 mps 737 mmHg 83%
    12:00 -8°C° 0.1 mm 5 mps 737 mmHg 84%
    13:00 -8°C° 0.1 mm 4 mps 737 mmHg 84%
    14:00 -8°C° 0.1 mm 4 mps 738 mmHg 85%
    15:00 -8°C° 0.2 mm 4 mps 738 mmHg 86%
    16:00 -8°C° 0.2 mm 4 mps 738 mmHg 87%
    17:00 -8°C° 0.2 mm 4 mps 738 mmHg 88%
    18:00 -8°C° 0 mm 4 mps 738 mmHg 88%
    19:00 -8°C° 0 mm 4 mps 738 mmHg 88%
    20:00 -9°C° 0 mm 4 mps 738 mmHg 87%
    21:00 -9°C° 0 mm 4 mps 738 mmHg 87%
    22:00 -8°C° 0 mm 4 mps 739 mmHg 87%
    23:00 -8°C° 0 mm 4 mps 739 mmHg 86%

    20 January, Sunday

    Time Temperature Precipitation Wind Pressure Humidity
    00:00 -9°C° 0 mm 4 mps 739 mmHg 87%
    01:00 -9°C° 0 mm 4 mps 739 mmHg 88%
    02:00 -9°C° 0 mm 4 mps 739 mmHg 89%
    03:00 -9°C° 0 mm 4 mps 739 mmHg 90%
    04:00 -9°C° 0 mm 3 mps 739 mmHg 91%
    05:00 -9°C° 0 mm 3 mps 739 mmHg 91%
    06:00 -9°C° 0 mm 3 mps 739 mmHg 92%
    07:00 -9°C° 0 mm 3 mps 739 mmHg 93%
    08:00 -8°C° 0 mm 2 mps 740 mmHg 93%
    09:00 -8°C° 0 mm 2 mps 740 mmHg 92%
    10:00 -7°C° 0 mm 2 mps 740 mmHg 90%
    11:00 -8°C° 0 mm 3 mps 741 mmHg 89%
    12:00 -7°C° 0 mm 2 mps 741 mmHg 89%
    13:00 -6°C° 0 mm 2 mps 740 mmHg 90%
    14:00 -6°C° 0 mm 2 mps 740 mmHg 90%
    15:00 -7°C° 0 mm 2 mps 740 mmHg 92%
    16:00 -8°C° 0 mm 2 mps 740 mmHg 93%
    17:00 -9°C° 0 mm 2 mps 740 mmHg 95%
    18:00 -9°C° 0 mm 1 mps 740 mmHg 95%
    19:00 -9°C° 0 mm 1 mps 740 mmHg 95%
    20:00 -9°C° 0 mm 1 mps 740 mmHg 95%
    21:00 -9°C° 0.1 mm 1 mps 740 mmHg 96%
    22:00 -8°C° 0.1 mm 1 mps 740 mmHg 96%
    23:00 -7°C° 0.1 mm 1 mps 740 mmHg 96%

    21 January, Monday

    Time Temperature Precipitation Wind Pressure Humidity
    00:00 -8°C° 0 mm 1 mps 740 mmHg 96%
    01:00 -8°C° 0 mm 1 mps 740 mmHg 96%
    02:00 -9°C° 0 mm 1 mps 740 mmHg 97%
    03:00 -9°C° 0.1 mm 1 mps 740 mmHg 97%
    04:00 -9°C° 0.1 mm 1 mps 740 mmHg 97%
    05:00 -9°C° 0.1 mm 1 mps 740 mmHg 97%
    06:00 -9°C° 0 mm 1 mps 740 mmHg 97%
    07:00 -9°C° 0 mm 1 mps 740 mmHg 96%
    08:00 -9°C° 0 mm 1 mps 740 mmHg 96%
    09:00 -10°C° 0 mm 2 mps 741 mmHg 96%
    10:00 -9°C° 0 mm 2 mps 741 mmHg 95%
    11:00 -9°C° 0 mm 2 mps 741 mmHg 94%
    12:00 -8°C° 0 mm 2 mps 741 mmHg 93%
    13:00 -8°C° 0 mm 2 mps 741 mmHg 92%
    14:00 -8°C° 0 mm 2 mps 741 mmHg 91%
    15:00 -8°C° 0.1 mm 1 mps 741 mmHg 92%
    16:00 -9°C° 0.1 mm 1 mps 741 mmHg 94%
    17:00 -9°C° 0.1 mm 1 mps 742 mmHg 95%
    18:00 -10°C° 0 mm 1 mps 742 mmHg 96%
    19:00 -10°C° 0 mm 1 mps 742 mmHg 96%
    20:00 -11°C° 0 mm 1 mps 742 mmHg 97%
    21:00 -14°C° 0 mm 2 mps 742 mmHg 97%
    22:00 -14°C° 0 mm 2 mps 743 mmHg 97%
    23:00 -15°C° 0 mm 2 mps 743 mmHg 97%
    Show more